DateTimeUTC,F1_A11,F1_S11,BsB_S11,BsG_S11,BsR_S11,BbsB_S11,BbsG_S11,BbsR_S11,BaB_A11,BaG_A11,BaR_A11,Tu_S11,T_S11,Uu_S11,U_S11,P_S11,T1_A11
2021-12-07T07:00:00Z,00000200,21000000,,,,,,,0000.18,-000.32,-000.08,19.7,26.6,,00.0,0635.7,31.1
2021-12-07T07:01:00Z,00000200,21000000,,,,,,,-000.24,0000.21,-000.05,19.7,26.6,,00.0,0635.7,31.1
2021-12-07T07:02:00Z,00000200,21000000,,,,,,,0000.12,0000.23,0000.11,19.7,26.6,,00.0,0635.7,31.1
2021-12-07T07:03:00Z,00000200,61000000,,,,,,,0000.17,0000.22,-000.12,19.7,26.6,,00.0,0635.7,31.1
2021-12-07T07:04:00Z,00000200,41000000,-000.24,0000.06,-000.03,0000.26,0000.06,0000.29,-000.26,-000.10,0000.04,19.7,26.4,,00.0,0636.5,31.1
2021-12-07T07:05:00Z,00000200,01000000,0000.05,0000.01,0000.10,0000.21,-000.36,0000.39,0000.29,-000.06,-000.01,19.6,26.3,,00.0,0636.5,31.1
2021-12-07T07:06:00Z,00000200,01000000,0000.02,0000.05,0000.11,-000.33,-000.21,-000.20,0000.22,0000.07,0000.02,19.6,26.3,,00.0,0636.5,31.1
2021-12-07T07:07:00Z,00000200,01000000,0000.73,0000.16,0000.14,-000.08,-000.18,-000.09,0000.12,0000.17,0000.53,19.6,26.2,,00.0,0636.5,31.1
2021-12-07T07:08:00Z,00000200,01000000,-000.00,0000.25,0000.31,0000.71,-000.20,0000.30,0000.39,0000.00,-000.03,19.7,26.2,,00.0,0636.6,31.1
2021-12-07T07:09:00Z,00000200,01000000,0000.27,-000.25,-000.46,0000.02,0000.10,0000.22,-000.30,0000.01,-000.10,19.7,26.2,,00.0,0636.6,31.1
2021-12-07T07:10:00Z,00000200,01000000,0000.09,-000.18,0000.07,-000.36,-000.32,0000.24,-000.45,-000.35,-000.01,19.8,26.3,,00.0,0636.7,31.1
2021-12-07T07:11:00Z,00000200,01000000,0000.48,-000.07,0000.25,-000.22,-000.13,0000.16,-000.15,-000.17,-000.03,19.8,26.3,,00.0,0636.7,31.1
2021-12-07T07:12:00Z,00000200,01000000,-000.04,0000.02,0000.44,-000.09,-000.21,0000.18,-000.05,0000.31,-000.33,19.9,26.3,,00.0,0636.8,31.1
2021-12-07T07:13:00Z,00000200,01000000,0000.49,-000.21,0000.09,0000.22,-000.15,-000.19,-000.21,-000.67,-000.19,19.9,26.3,,00.0,0636.8,31.1
2021-12-07T07:14:00Z,00000200,01000000,0000.32,0000.18,0000.05,0000.62,-000.20,0000.03,-000.32,0000.03,0000.08,20.0,26.4,,00.0,0636.8,31.1
2021-12-07T07:15:00Z,00000200,01000000,-000.34,-000.02,0000.25,-000.15,-000.19,0000.09,-000.13,-000.30,-000.27,20.0,26.4,,00.0,0636.8,31.1
2021-12-07T07:16:00Z,00000200,01000000,0000.34,0000.30,-000.03,0000.44,-000.40,-000.05,-000.18,0000.26,-000.04,19.9,26.4,,00.0,0636.8,31.1
2021-12-07T07:17:00Z,00000200,01000000,0000.33,0000.46,0000.33,0000.08,-000.18,0000.39,-000.13,-000.60,0000.07,19.9,26.3,,00.0,0636.9,31.1
2021-12-07T07:18:00Z,00000200,01000000,0000.49,0000.01,0000.32,-000.38,-000.07,0000.23,-000.44,-000.21,-000.56,19.8,26.3,,00.0,0636.8,31.1
2021-12-07T07:19:00Z,00000200,01000000,0000.07,0000.06,0000.43,0000.86,0000.12,0000.12,-000.22,0000.13,-000.02,19.7,26.3,,00.0,0636.8,31.1
2021-12-07T07:20:00Z,00000200,01000000,0000.27,-000.18,0000.07,0000.45,-000.30,0000.14,0000.08,-000.53,-000.04,19.7,26.3,,00.0,0636.8,31.1
2021-12-07T07:21:00Z,00000200,01000000,0000.27,0000.15,0000.00,-000.22,0000.18,-000.13,-000.04,0000.32,-000.22,19.6,26.2,,00.0,0636.8,31.0
2021-12-07T07:22:00Z,00000200,01000000,0000.36,-000.08,0000.20,-000.16,0000.03,0000.50,0000.10,0000.02,0000.47,19.6,26.2,,00.0,0636.8,31.1
2021-12-07T07:23:00Z,00000200,01000000,0000.06,0000.36,0000.17,0000.70,0000.39,-000.24,0000.16,-000.08,-000.06,19.7,26.2,,00.0,0636.8,31.1
2021-12-07T07:24:00Z,00000200,01000000,0000.65,-000.38,0000.04,0000.14,0000.17,-000.06,0000.08,0000.22,-000.02,19.7,26.2,,00.0,0636.8,31.1
2021-12-07T07:25:00Z,00000200,01000000,0000.32,-000.12,0000.26,-000.49,-000.29,0000.23,-000.08,-000.12,0000.25,19.8,26.2,,00.0,0636.9,31.1
2021-12-07T07:26:00Z,00000200,01000000,0000.05,-000.07,0000.20,0000.13,-000.01,0000.18,0000.00,-000.25,-000.30,19.8,26.2,,00.0,0636.9,31.1
2021-12-07T07:27:00Z,00000200,01000000,0000.24,0000.08,0000.05,0000.00,-000.21,0000.06,-000.20,0000.00,-000.14,19.9,26.3,,00.0,0637.0,31.1
2021-12-07T07:28:00Z,00000200,01000000,0000.10,0000.05,-000.17,-000.62,-000.25,0000.24,0000.09,0000.01,0000.01,19.9,26.3,,00.0,0637.1,31.1
2021-12-07T07:29:00Z,00000200,01000000,0000.50,-000.04,0000.14,-000.12,-000.05,-000.03,-000.03,0000.14,0000.01,20.0,26.3,,00.0,0637.1,31.1
2021-12-07T07:30:00Z,00000200,01000000,0000.44,0000.04,0000.39,-001.06,-000.02,0000.28,0001.08,0000.82,0000.92,20.1,26.4,,00.0,0637.2,31.1
2021-12-07T07:31:00Z,00000200,01000000,0000.02,0000.13,0000.31,0000.44,-000.13,0000.24,0000.17,0000.38,-000.20,20.1,26.4,,00.0,0637.2,31.1
2021-12-07T07:32:00Z,00000200,01000000,0000.20,0000.09,0000.13,0000.30,-000.15,0000.27,0001.13,0000.84,0001.04,20.1,26.4,,00.0,0637.1,31.1
2021-12-07T07:33:00Z,00000200,01000000,0000.40,0000.20,-000.03,0000.19,-000.09,0000.37,0001.43,0001.16,0001.23,20.0,26.4,,00.0,0637.1,31.2
2021-12-07T07:34:00Z,00000200,01000000,0000.67,0000.12,0000.27,-000.16,-000.14,0000.22,0000.37,0000.93,0000.45,20.0,26.4,,00.0,0637.1,31.1
2021-12-07T07:35:00Z,00000200,01000000,0000.62,0000.11,0000.32,0000.97,-000.28,-000.02,0000.44,0000.10,0000.16,19.9,26.4,,00.0,0637.1,31.1
2021-12-07T07:36:00Z,00000200,01000000,-000.41,-000.21,0000.11,-000.04,0000.16,-000.19,0000.17,-000.10,-000.08,19.9,26.3,,00.0,0637.1,31.1
2021-12-07T07:37:00Z,00000200,01000000,0000.77,0000.05,0000.40,-000.13,-000.04,0000.27,0000.24,0000.52,0000.13,19.9,26.3,,00.0,0637.1,31.1
2021-12-07T07:38:00Z,00000200,01000000,0000.37,0000.11,0000.45,0000.13,-000.18,-000.06,-000.23,-000.31,0000.02,19.9,26.3,,00.0,0637.1,31.1
2021-12-07T07:39:00Z,00000200,01000000,0000.17,0000.28,0000.03,-000.45,-000.20,0000.12,0000.02,0000.35,0000.21,20.0,26.3,,00.0,0637.1,31.1
2021-12-07T07:40:00Z,00000200,01000000,-000.18,0000.34,0000.09,-000.09,-000.15,0000.17,0000.10,0000.06,-000.20,20.0,26.3,,00.0,0637.1,31.1
2021-12-07T07:41:00Z,00000200,01000000,0000.21,-000.06,0000.30,-000.41,0000.00,0000.05,0000.25,0000.05,-000.13,20.1,26.4,,00.0,0637.1,31.1
2021-12-07T07:42:00Z,00000200,01000000,-000.29,0000.12,-000.01,-000.15,-000.18,0000.11,-000.00,-000.43,0000.25,20.1,26.4,,00.0,0637.1,31.1
2021-12-07T07:43:00Z,00000200,01000000,0000.07,0000.39,0000.28,-000.16,-000.08,0000.70,-000.19,0000.04,-000.21,20.1,26.4,,00.0,0637.0,31.1
2021-12-07T07:44:00Z,00000200,01000000,0000.28,0000.37,0000.11,-000.24,-000.09,-000.08,0000.24,0000.53,0000.41,20.1,26.5,,00.0,0637.0,31.1
2021-12-07T07:45:00Z,00000200,01000000,0000.16,0000.23,0000.25,0000.51,-000.15,-000.11,-000.31,-000.06,-000.35,20.1,26.4,,00.0,0637.0,31.1
2021-12-07T07:46:00Z,00000200,01000000,0000.83,-000.18,0000.21,-000.11,-000.16,0000.42,0000.34,-000.17,-000.01,20.0,26.4,,00.0,0636.9,31.1
2021-12-07T07:47:00Z,00000200,01000000,0000.15,0000.06,0000.35,0000.17,-000.21,-000.14,-000.08,0000.29,0000.12,19.9,26.4,,00.0,0636.9,31.1
2021-12-07T07:48:00Z,00000200,01000000,-000.12,0000.13,0000.36,0000.30,-000.19,0000.35,-000.16,-000.04,-000.10,19.9,26.4,,00.0,0636.9,31.1
2021-12-07T07:49:00Z,00000200,01000000,0000.07,0000.02,0000.09,0000.32,-000.42,0000.23,0000.39,-000.06,0000.09,19.8,26.3,,00.0,0636.9,31.1
2021-12-07T07:50:00Z,00000200,01000000,-000.16,0000.33,-000.01,-000.30,0000.26,0000.04,-000.03,-000.15,-000.12,19.7,26.3,,00.0,0636.8,31.1
2021-12-07T07:51:00Z,00000200,01000000,0000.29,0000.08,0000.27,0000.19,-000.44,0000.13,-000.05,0000.07,0000.29,19.7,26.3,,00.0,0636.8,31.1
2021-12-07T07:52:00Z,00000200,01000000,0000.92,0000.12,-000.02,0000.51,-000.19,0000.30,0000.27,0000.02,-000.11,19.7,26.2,,00.0,0636.9,31.1
2021-12-07T07:53:00Z,00000200,01000000,0000.51,0000.22,0000.12,-000.45,0000.01,0000.21,-000.00,-000.01,0000.14,19.7,26.2,,00.0,0636.9,31.1
2021-12-07T07:54:00Z,00000200,01000000,0001.06,0000.03,0000.42,0000.24,-000.04,0000.11,-000.03,-000.04,-000.13,19.8,26.2,,00.0,0636.9,31.1
2021-12-07T07:55:00Z,00000200,01000000,0000.07,0000.25,0000.14,-000.16,0000.00,0000.36,0000.00,0000.42,0000.29,19.8,26.3,,00.0,0637.0,31.1
2021-12-07T07:56:00Z,00000200,01000000,0000.42,0000.13,0000.14,-000.23,-000.30,0000.26,-000.10,-000.02,-000.08,19.9,26.3,,00.0,0637.0,31.1
2021-12-07T07:57:00Z,00000200,41000000,,,,,,,0001.05,0000.92,0000.88,20.0,26.3,,00.0,0637.1,31.1
2021-12-07T07:58:00Z,00000200,61000000,,,,,,,-000.46,-000.35,-000.50,19.7,26.4,,00.0,0636.2,31.1
2021-12-07T07:59:00Z,00000200,21000000,,,,,,,-000.72,-000.68,-000.50,19.7,26.5,,00.0,0636.2,31.1
